Location: Napa Soda Springs
(38.3907°N, 122.2794°W)
Time: 21:22:56
(UTC+00:00)

Cosmos 1315 Rocket - Pass Details

Date: 29 October 2020
Orbit: 530 x 567 km, 81.2° (Epoch: 24 November)

Event Time Altitude Azimuth Distance (km) Brightness Sun altitude
Rises 13:17:46 0° 357° (N) 2,765 6.3 -15.3°
Reaches altitude 10° 13:20:01 10° 3° (N) 1,868 5.5 -14.8°
Maximum altitude 13:24:00 47° 78° (ENE) 758 4.0 -14.0°
Drops below altitude 10° 13:27:59 10° 153° (SSE) 1,859 6.0 -13.3°
Sets 13:30:13 0° 159° (SSE) 2,750 6.8 -12.8°
